timestamp,surface_pressure_avg,surface_temp_avg,battery_voltage,lat,long
2022-08-18 00:09:00+00:00,220.1198,19.9,11.7,47.84626,-54.09684
2022-08-18 00:19:00+00:00,222.7548,19.9,11.61,47.84626,-54.09684
2022-08-18 00:29:00+00:00,229.1198,19.7,11.61,47.84626,-54.09684
2022-08-18 00:39:00+00:00,235.6681,19.7,11.61,47.84626,-54.09684
2022-08-18 00:49:00+00:00,236.7098,19.7,11.61,47.84626,-54.09684
2022-08-18 00:59:00+00:00,237.7664,19.7,11.61,47.84626,-54.09684
2022-08-18 01:09:00+00:00,242.0881,19.79,11.61,47.84626,-54.09684
2022-08-18 01:19:00+00:00,248.1764,19.8,11.61,47.84626,-54.09684
2022-08-18 01:29:00+00:00,252.0447,19.69,11.61,47.84626,-54.09684
2022-08-18 01:39:00+00:00,256.368,19.6,11.61,47.84626,-54.09684
2022-08-18 01:49:00+00:00,263.4331,19.6,11.61,47.84626,-54.09684
2022-08-18 01:59:00+00:00,275.0064,19.63,11.61,47.84626,-54.09684
2022-08-18 02:09:00+00:00,283.7448,19.5,11.61,47.84626,-54.09684
2022-08-18 02:19:00+00:00,290.9681,19.5,11.61,47.84626,-54.09684
2022-08-18 02:29:00+00:00,297.8331,19.49,11.61,47.84626,-54.09684
2022-08-18 02:39:00+00:00,304.0564,19.48,11.61,47.84626,-54.09684
2022-08-18 02:49:00+00:00,307.3513,19.4,11.61,47.84626,-54.09684
2022-08-18 02:59:00+00:00,309.693,19.4,11.61,47.84626,-54.09684
2022-08-18 03:09:00+00:00,313.7564,19.38,11.61,47.84626,-54.09684
2022-08-18 03:19:01+00:00,317.9963,19.3,11.61,47.84626,-54.09684
2022-08-18 03:29:01+00:00,315.393,19.3,11.61,47.84626,-54.09684
2022-08-18 03:39:01+00:00,314.9298,19.3,11.61,47.84626,-54.09684
2022-08-18 03:49:01+00:00,317.1929,19.3,11.61,47.84626,-54.09684
2022-08-18 03:59:01+00:00,317.0296,19.34,11.61,47.84626,-54.09684
2022-08-18 04:09:01+00:00,312.138,19.39,11.61,47.84626,-54.09684
2022-08-18 04:19:00+00:00,312.6613,19.4,11.53,47.84626,-54.09684
2022-08-18 04:29:00+00:00,314.5363,19.4,11.53,47.84626,-54.09684
2022-08-18 04:39:00+00:00,309.9747,19.43,11.53,47.84626,-54.09684
2022-08-18 04:49:00+00:00,304.718,19.48,11.53,47.84626,-54.09684
2022-08-18 04:59:00+00:00,303.3331,19.5,11.53,47.84626,-54.09684
2022-08-18 05:09:00+00:00,303.5181,19.5,11.53,47.84626,-54.09684
2022-08-18 05:19:00+00:00,300.4513,19.5,11.53,47.84626,-54.09684
2022-08-18 05:29:00+00:00,297.1847,19.48,11.53,47.84626,-54.09684
2022-08-18 05:39:00+00:00,296.2446,19.4,11.53,47.84626,-54.09684
2022-08-18 05:49:00+00:00,294.2064,19.4,11.53,47.84626,-54.09684
2022-08-18 05:59:00+00:00,288.9197,19.2,11.53,47.84626,-54.09684
2022-08-18 06:09:00+00:00,286.9499,19.2,11.53,47.84626,-54.09684
2022-08-18 06:19:01+00:00,285.1398,19.18,11.53,47.84626,-54.09684
2022-08-18 06:29:01+00:00,279.4581,19.2,11.53,47.84626,-54.09684
2022-08-18 06:39:01+00:00,269.8747,19.1,11.53,47.84626,-54.09684
2022-08-18 06:49:01+00:00,266.3997,19.1,11.53,47.84626,-54.09684
2022-08-18 06:59:01+00:00,260.5981,19.1,11.53,47.84626,-54.09684
2022-08-18 07:09:01+00:00,253.6814,19.0,11.53,47.84626,-54.09684
2022-08-18 07:19:00+00:00,245.5748,19.0,11.53,47.84626,-54.09684
2022-08-18 07:29:00+00:00,235.1598,19.0,11.53,47.84626,-54.09684
2022-08-18 07:39:00+00:00,224.3281,18.9,11.53,47.84626,-54.09684
2022-08-18 07:49:00+00:00,216.4848,18.7,11.53,47.84626,-54.09684
2022-08-18 07:59:00+00:00,211.1447,18.65,11.53,47.84626,-54.09684
2022-08-18 08:09:00+00:00,205.7164,18.6,11.53,47.84626,-54.09684
2022-08-18 08:19:00+00:00,198.2731,18.54,11.53,47.84626,-54.09684
2022-08-18 08:29:00+00:00,193.0998,18.5,11.53,47.84626,-54.09684
2022-08-18 08:39:00+00:00,186.8948,18.59,11.53,47.84626,-54.09684
2022-08-18 08:49:00+00:00,183.5399,18.58,11.53,47.84626,-54.09684
2022-08-18 08:59:00+00:00,184.9681,18.5,11.53,47.84626,-54.09684
2022-08-18 09:09:00+00:00,182.5298,18.5,11.53,47.84626,-54.09684
2022-08-18 09:19:01+00:00,180.0898,18.54,11.53,47.84626,-54.09684
2022-08-18 09:29:01+00:00,180.0081,18.62,11.53,47.84626,-54.09684
2022-08-18 09:39:01+00:00,181.1148,18.75,11.53,47.84626,-54.09684
2022-08-18 09:49:01+00:00,180.9565,18.83,11.53,47.84626,-54.09684
2022-08-18 09:59:01+00:00,181.3448,18.9,11.53,47.84626,-54.09684
2022-08-18 10:09:01+00:00,186.4431,18.99,11.53,47.84626,-54.09684
2022-08-18 10:19:01+00:00,191.9748,19.0,11.53,47.84626,-54.09684
2022-08-18 10:29:01+00:00,195.4298,19.0,11.53,47.84626,-54.09684
2022-08-18 10:39:01+00:00,196.5214,19.0,11.53,47.84626,-54.09684
2022-08-18 10:49:01+00:00,202.2231,18.82,11.53,47.84626,-54.09684
2022-08-18 10:59:01+00:00,208.0431,18.51,11.53,47.84626,-54.09684
2022-08-18 11:09:01+00:00,211.1998,18.6,11.53,47.84626,-54.09684
2022-08-18 11:19:00+00:00,214.8765,18.4,11.53,47.84626,-54.09684
2022-08-18 11:29:00+00:00,222.9981,18.34,11.53,47.84626,-54.09684
2022-08-18 11:39:00+00:00,227.7448,18.25,11.53,47.84626,-54.09684
2022-08-18 11:49:00+00:00,226.223,18.52,11.53,47.84626,-54.09684
2022-08-18 11:59:00+00:00,229.0814,18.6,11.53,47.84626,-54.09684
2022-08-18 12:09:00+00:00,235.7981,18.7,11.53,47.84626,-54.09684
2022-08-18 12:19:00+00:00,240.9731,18.86,11.53,47.84626,-54.09684
2022-08-18 12:29:00+00:00,243.1147,18.95,11.53,47.84626,-54.09684
2022-08-18 12:39:00+00:00,249.0564,18.98,11.53,47.84626,-54.09684
2022-08-18 12:49:00+00:00,257.0847,18.81,11.53,47.84626,-54.09684
2022-08-18 12:59:00+00:00,257.8414,18.9,11.53,47.84626,-54.09684
2022-08-18 13:09:00+00:00,252.5814,18.9,11.53,47.84626,-54.09684
2022-08-18 13:19:00+00:00,252.9614,18.95,11.61,47.84626,-54.09684
2022-08-18 13:29:00+00:00,260.4264,18.9,11.61,47.84626,-54.09684
2022-08-18 13:39:00+00:00,262.3581,18.89,11.61,47.84626,-54.09684
2022-08-18 13:49:00+00:00,259.183,18.89,11.61,47.84626,-54.09684
2022-08-18 13:59:00+00:00,265.3647,18.8,11.61,47.84626,-54.09684
2022-08-18 14:09:00+00:00,275.9597,18.8,11.61,47.84626,-54.09684
2022-08-18 14:19:00+00:00,282.223,18.7,11.61,47.84626,-54.09684
2022-08-18 14:29:00+00:00,288.4613,18.7,11.61,47.84626,-54.09684
2022-08-18 14:39:00+00:00,300.46299999999997,18.4,11.61,47.84626,-54.09684
2022-08-18 14:49:00+00:00,306.1879,18.3,11.61,47.84626,-54.09684
2022-08-18 14:59:00+00:00,302.8796,18.2,11.61,47.84626,-54.09684
2022-08-18 15:09:00+00:00,304.7964,18.19,11.61,47.84626,-54.09684
2022-08-18 15:19:00+00:00,312.6914,18.0,11.61,47.84626,-54.09684
2022-08-18 15:29:00+00:00,316.9665,17.9,11.61,47.84626,-54.09684
2022-08-18 15:39:00+00:00,315.5363,18.0,11.61,47.84626,-54.09684
2022-08-18 15:49:00+00:00,316.8979,17.98,11.61,47.84626,-54.09684
2022-08-18 15:59:00+00:00,321.9664,17.6,11.61,47.84626,-54.09684
2022-08-18 16:09:00+00:00,321.7631,17.64,11.61,47.84626,-54.09684
2022-08-18 16:19:00+00:00,322.8596,17.6,11.53,47.84626,-54.09684
2022-08-18 16:29:00+00:00,328.6829,17.4,11.53,47.84626,-54.09684
2022-08-18 16:39:00+00:00,327.9996,17.5,11.53,47.84626,-54.09684
2022-08-18 16:49:00+00:00,322.1213,17.65,11.53,47.84626,-54.09684
2022-08-18 16:59:00+00:00,320.9247,17.66,11.53,47.84626,-54.09684
2022-08-18 17:09:00+00:00,323.4363,17.6,11.53,47.84626,-54.09684
2022-08-18 17:19:01+00:00,320.9946,17.5,11.61,47.84626,-54.09684
2022-08-18 17:29:01+00:00,317.2513,17.6,11.61,47.84626,-54.09684
2022-08-18 17:39:01+00:00,318.353,17.6,11.61,47.84626,-54.09684
2022-08-18 17:49:01+00:00,321.0896,17.7,11.61,47.84626,-54.09684
2022-08-18 17:59:01+00:00,317.1897,17.84,11.61,47.84626,-54.09684
2022-08-18 18:09:01+00:00,312.413,17.9,11.61,47.84626,-54.09684
2022-08-18 18:19:00+00:00,311.6896,17.9,11.53,47.84626,-54.09684
2022-08-18 18:29:00+00:00,312.0596,17.9,11.53,47.84626,-54.09684
2022-08-18 18:39:00+00:00,306.5747,17.9,11.53,47.84626,-54.09684
2022-08-18 18:49:00+00:00,300.5148,17.93,11.53,47.84626,-54.09684
2022-08-18 18:59:00+00:00,299.9747,17.93,11.53,47.84626,-54.09684
2022-08-18 19:09:00+00:00,298.0598,17.99,11.53,47.84626,-54.09684
2022-08-18 19:19:00+00:00,289.973,18.09,11.53,47.84626,-54.09684
2022-08-18 19:29:00+00:00,282.1347,18.0,11.53,47.84626,-54.09684
2022-08-18 19:39:00+00:00,275.493,17.9,11.53,47.84626,-54.09684
2022-08-18 19:49:00+00:00,265.5547,17.94,11.53,47.84626,-54.09684
2022-08-18 19:59:00+00:00,254.5497,18.09,11.53,47.84626,-54.09684
2022-08-18 20:09:00+00:00,250.6897,18.09,11.53,47.84626,-54.09684
2022-08-18 20:19:01+00:00,244.8214,17.99,11.53,47.84626,-54.09684
2022-08-18 20:29:01+00:00,233.0247,18.0,11.53,47.84626,-54.09684
2022-08-18 20:39:01+00:00,221.7914,18.14,11.53,47.84626,-54.09684
2022-08-18 20:49:01+00:00,218.1298,18.2,11.53,47.84626,-54.09684
2022-08-18 20:59:01+00:00,214.9581,18.28,11.53,47.84626,-54.09684
2022-08-18 21:09:01+00:00,209.5815,18.4,11.53,47.84626,-54.09684
2022-08-18 21:19:00+00:00,207.0165,18.3,11.53,47.84626,-54.09684
2022-08-18 21:29:00+00:00,207.2681,18.2,11.53,47.84626,-54.09684
2022-08-18 21:39:00+00:00,203.1698,18.61,11.53,47.84626,-54.09684
2022-08-18 21:49:00+00:00,199.0514,18.85,11.53,47.84626,-54.09684
2022-08-18 21:59:00+00:00,201.5598,18.9,11.53,47.84626,-54.09684
2022-08-18 22:09:00+00:00,204.7782,18.9,11.53,47.84626,-54.09684
2022-08-18 22:19:00+00:00,204.5216,18.9,11.53,47.84626,-54.09684
2022-08-18 22:29:00+00:00,204.9514,18.78,11.53,47.84626,-54.09684
2022-08-18 22:39:00+00:00,211.1314,18.5,11.53,47.84626,-54.09684
2022-08-18 22:49:00+00:00,214.9182,18.4,11.53,47.84626,-54.09684
2022-08-18 22:59:00+00:00,213.8998,18.4,11.53,47.84626,-54.09684
2022-08-18 23:09:00+00:00,215.3715,18.4,11.53,47.84626,-54.09684
2022-08-18 23:19:00+00:00,217.9214,18.4,11.53,47.84626,-54.09684
2022-08-18 23:29:00+00:00,221.2631,18.45,11.53,47.84626,-54.09684
2022-08-18 23:39:00+00:00,225.2164,18.59,11.53,47.84626,-54.09684
2022-08-18 23:49:00+00:00,227.9615,18.7,11.53,47.84626,-54.09684
2022-08-18 23:59:00+00:00,225.7431,18.5,11.53,47.84626,-54.09684
